SWR55B LSZH-KBOS

Flight info

Callsign SWR55B
Flight time N/A
Altitude 34000
Route VEBIT T10 TORPA DCT REKLA DCT RLP DCT ROTSI/N0484F380 DCT AMODO DCT COHPA UM729 RESMI DCT TABOV DCT PIGOP DCT DITAL UN491 LGL UN502 ARGED DCT SENLO DCT JSY DCT LIZAD DCT GAPLI/M084F380 DCT SOMAX/M084F390 NATG ELSIR/N0496F400 N398B TUSKY DCT OOSHN OOSHN5
Aircraft A359/H-SDE2E3GHIJ3J4J5LM1ORWXY/LB1D1

Departure

Time N/A
Airport Zürich Airport (LSZH)

Arrival

Time 2026-05-04 21:01
Airport Boston Logan International Airport (KBOS)
Time Latitude Longitude Altitude Speed Heading
2026-05-04 18:04 50.79975 -42.92923 40016 ft 440 kts 259°
2026-05-04 18:05 50.79588 -42.97683 40017 ft 440 kts 259°
2026-05-04 18:05 50.78800 -43.07286 40011 ft 440 kts 259°
2026-05-04 18:06 50.77601 -43.21714 40000 ft 441 kts 258°
2026-05-04 18:06 50.76791 -43.31329 39994 ft 441 kts 258°
2026-05-04 18:07 50.75974 -43.40940 39984 ft 441 kts 258°
2026-05-04 18:07 50.75149 -43.50541 39977 ft 442 kts 258°
2026-05-04 18:08 50.74316 -43.60144 39971 ft 442 kts 258°
2026-05-04 18:08 50.73473 -43.69769 39961 ft 443 kts 257°
2026-05-04 18:09 50.71758 -43.89063 39949 ft 444 kts 257°
2026-05-04 18:10 50.70887 -43.98731 39939 ft 445 kts 257°
2026-05-04 18:10 50.70001 -44.08453 39933 ft 446 kts 257°
2026-05-04 18:11 50.69108 -44.18160 39924 ft 447 kts 256°
2026-05-04 18:11 50.68209 -44.27841 39916 ft 448 kts 256°
2026-05-04 18:12 50.67298 -44.37569 39908 ft 449 kts 256°
2026-05-04 18:12 50.66371 -44.47376 39900 ft 450 kts 256°
2026-05-04 18:13 50.65439 -44.57153 39893 ft 451 kts 256°
2026-05-04 18:14 50.64026 -44.71795 39883 ft 453 kts 255°
2026-05-04 18:14 50.63067 -44.81632 39876 ft 454 kts 255°
2026-05-04 18:15 50.61122 -45.01303 39868 ft 457 kts 255°
2026-05-04 18:16 50.60128 -45.11226 39856 ft 458 kts 255°
2026-05-04 18:16 50.59119 -45.21205 39858 ft 460 kts 255°
2026-05-04 18:17 50.57596 -45.36100 39847 ft 461 kts 254°
2026-05-04 18:18 50.56047 -45.51057 39841 ft 462 kts 254°
2026-05-04 18:18 50.55000 -45.61055 39831 ft 463 kts 254°
2026-05-04 18:19 50.53413 -45.76053 39828 ft 464 kts 254°
2026-05-04 18:19 50.52344 -45.86047 39821 ft 464 kts 254°
2026-05-04 18:20 50.51265 -45.96047 39818 ft 465 kts 253°
2026-05-04 18:20 50.50177 -46.06055 39813 ft 465 kts 253°
2026-05-04 18:21 50.49076 -46.16086 39806 ft 465 kts 253°
2026-05-04 18:21 50.47969 -46.26090 39804 ft 466 kts 253°
2026-05-04 18:22 50.46854 -46.36090 39800 ft 466 kts 253°
2026-05-04 18:22 50.45729 -46.46100 39794 ft 466 kts 253°
2026-05-04 18:23 50.44591 -46.56139 39790 ft 467 kts 253°
2026-05-04 18:23 50.43447 -46.66155 39787 ft 467 kts 253°
2026-05-04 18:24 50.42290 -46.76197 39776 ft 468 kts 253°
2026-05-04 18:24 50.41119 -46.86280 39777 ft 468 kts 253°
2026-05-04 18:25 50.39948 -46.96288 39773 ft 468 kts 253°
2026-05-04 18:25 50.38765 -47.06326 39769 ft 469 kts 253°
2026-05-04 18:26 50.37570 -47.16377 39766 ft 469 kts 253°
2026-05-04 18:26 50.36370 -47.26398 39765 ft 469 kts 253°
2026-05-04 18:27 50.35150 -47.36502 39755 ft 470 kts 253°
2026-05-04 18:27 50.33924 -47.46587 39755 ft 471 kts 253°
2026-05-04 18:28 50.32689 -47.56663 39752 ft 471 kts 253°
2026-05-04 18:28 50.31653 -47.65056 39746 ft 472 kts 253°
2026-05-04 18:29 50.30200 -47.76747 39744 ft 473 kts 253°
2026-05-04 18:29 50.29147 -47.85156 39731 ft 473 kts 253°
2026-05-04 18:30 50.27233 -48.00306 39724 ft 474 kts 253°
2026-05-04 18:31 50.25938 -48.10456 39721 ft 474 kts 253°
2026-05-04 18:31 50.24633 -48.20609 39716 ft 475 kts 253°
2026-05-04 18:32 50.23324 -48.30723 39713 ft 476 kts 253°
2026-05-04 18:32 50.22007 -48.40829 39700 ft 476 kts 253°
2026-05-04 18:33 50.20676 -48.50974 39701 ft 477 kts 253°
2026-05-04 18:33 50.19335 -48.61118 39694 ft 478 kts 253°
2026-05-04 18:34 50.17983 -48.71275 39690 ft 478 kts 253°
2026-05-04 18:34 50.16617 -48.81458 39682 ft 479 kts 253°
2026-05-04 18:35 50.15239 -48.91665 39681 ft 479 kts 253°
2026-05-04 18:35 50.13858 -49.01817 39673 ft 480 kts 253°
2026-05-04 18:36 50.12468 -49.11968 39664 ft 480 kts 253°
2026-05-04 18:36 50.11066 -49.22132 39661 ft 481 kts 252°
2026-05-04 18:37 50.09646 -49.32354 39656 ft 481 kts 252°
2026-05-04 18:37 50.08228 -49.42500 39648 ft 481 kts 252°
2026-05-04 18:38 50.06787 -49.52735 39642 ft 481 kts 252°
2026-05-04 18:38 50.05353 -49.62852 39639 ft 482 kts 252°
2026-05-04 18:39 50.03897 -49.73057 39624 ft 482 kts 252°
2026-05-04 18:39 50.02434 -49.83225 39625 ft 482 kts 252°
2026-05-04 18:40 50.00968 -49.93372 39617 ft 482 kts 252°
2026-05-04 18:40 49.99178 -50.03339 39607 ft 477 kts 246°
2026-05-04 18:41 49.96913 -50.13045 39600 ft 476 kts 245°
2026-05-04 18:41 49.94583 -50.22656 39594 ft 476 kts 245°
2026-05-04 18:42 49.92238 -50.32278 39590 ft 477 kts 245°
2026-05-04 18:42 49.89900 -50.41880 39580 ft 477 kts 245°
2026-05-04 18:43 49.87551 -50.51505 39577 ft 477 kts 244°
2026-05-04 18:43 49.85199 -50.61103 39566 ft 477 kts 244°
2026-05-04 18:44 49.82819 -50.70768 39562 ft 477 kts 244°
2026-05-04 18:44 49.80461 -50.80305 39554 ft 477 kts 244°
2026-05-04 18:45 49.78071 -50.89934 39540 ft 477 kts 244°
2026-05-04 18:45 49.75687 -50.99495 39539 ft 477 kts 244°
2026-05-04 18:46 49.73287 -51.09080 39533 ft 477 kts 244°
2026-05-04 18:46 49.70877 -51.18663 39527 ft 477 kts 244°
2026-05-04 18:47 49.68471 -51.28185 39515 ft 477 kts 244°
2026-05-04 18:47 49.66052 -51.37722 39510 ft 477 kts 244°
2026-05-04 18:48 49.63616 -51.47284 39504 ft 477 kts 244°
2026-05-04 18:48 49.61186 -51.56785 39491 ft 477 kts 244°
2026-05-04 18:49 49.58749 -51.66270 39485 ft 477 kts 244°
2026-05-04 18:49 49.56294 -51.75787 39477 ft 477 kts 244°
2026-05-04 18:50 49.53840 -51.85261 39470 ft 477 kts 244°
2026-05-04 18:50 49.51379 -51.94721 39461 ft 476 kts 244°
2026-05-04 18:51 49.48878 -52.04194 39453 ft 475 kts 243°
2026-05-04 18:51 49.46167 -52.13403 39445 ft 474 kts 241°
2026-05-04 18:52 49.43374 -52.22617 39436 ft 474 kts 241°
2026-05-04 18:52 49.40626 -52.31778 39429 ft 474 kts 242°
2026-05-04 18:53 49.37879 -52.40997 39421 ft 474 kts 242°
2026-05-04 18:53 49.35133 -52.50201 39412 ft 473 kts 242°
2026-05-04 18:54 49.32398 -52.59331 39403 ft 473 kts 242°
2026-05-04 18:54 49.29636 -52.68514 39391 ft 473 kts 242°
2026-05-04 18:55 49.26880 -52.77639 39380 ft 473 kts 242°
2026-05-04 18:55 49.22725 -52.91335 39370 ft 473 kts 242°
2026-05-04 18:56 49.19950 -53.00438 39360 ft 473 kts 241°
2026-05-04 18:56 49.17169 -53.09527 39342 ft 472 kts 241°
2026-05-04 18:57 49.14363 -53.18667 39344 ft 472 kts 241°
2026-05-04 18:57 49.11575 -53.27711 39335 ft 472 kts 241°
2026-05-04 18:58 49.08767 -53.36788 39318 ft 472 kts 241°
2026-05-04 18:58 49.05955 -53.45845 39311 ft 472 kts 241°
2026-05-04 18:59 49.03141 -53.54878 39306 ft 472 kts 241°
2026-05-04 18:59 49.00327 -53.63875 39305 ft 472 kts 241°
2026-05-04 19:00 48.97490 -53.72912 39293 ft 472 kts 241°
2026-05-04 19:00 48.94655 -53.81911 39285 ft 472 kts 241°
2026-05-04 19:01 48.91817 -53.90890 39279 ft 472 kts 241°
2026-05-04 19:01 48.88962 -53.99885 39278 ft 472 kts 241°
2026-05-04 19:02 48.86090 -54.08905 39266 ft 472 kts 241°
2026-05-04 19:02 48.83248 -54.17798 39252 ft 471 kts 241°
2026-05-04 19:03 48.80370 -54.26774 39244 ft 470 kts 241°
2026-05-04 19:03 48.77504 -54.35681 39238 ft 470 kts 241°
2026-05-04 19:04 48.74627 -54.44586 39235 ft 470 kts 241°
2026-05-04 19:04 48.71740 -54.53494 39235 ft 470 kts 241°
2026-05-04 19:05 48.68850 -54.62378 39239 ft 470 kts 241°
2026-05-04 19:05 48.65977 -54.71179 39238 ft 470 kts 241°
2026-05-04 19:06 48.63544 -54.78606 39229 ft 469 kts 241°
2026-05-04 19:06 48.60165 -54.88894 39222 ft 470 kts 241°
2026-05-04 19:07 48.57253 -54.97720 39207 ft 470 kts 241°
2026-05-04 19:07 48.54344 -55.06510 39218 ft 470 kts 240°
2026-05-04 19:08 48.51421 -55.15309 39216 ft 470 kts 240°
2026-05-04 19:08 48.48972 -55.22661 39207 ft 470 kts 240°
2026-05-04 19:09 48.46017 -55.31502 39204 ft 470 kts 240°
2026-05-04 19:09 48.43071 -55.40285 39201 ft 470 kts 240°
2026-05-04 19:10 48.40606 -55.47612 39203 ft 470 kts 240°
2026-05-04 19:10 48.37161 -55.57815 39200 ft 470 kts 240°
2026-05-04 19:11 48.34199 -55.66556 39197 ft 470 kts 240°
2026-05-04 19:11 48.31208 -55.75355 39199 ft 470 kts 240°
2026-05-04 19:12 48.26753 -55.88405 39196 ft 470 kts 240°
2026-05-04 19:13 48.23740 -55.97190 39200 ft 470 kts 240°
2026-05-04 19:13 48.20745 -56.05895 39199 ft 470 kts 240°
2026-05-04 19:14 48.17752 -56.14566 39201 ft 471 kts 240°
2026-05-04 19:14 48.14736 -56.23271 39202 ft 470 kts 240°
2026-05-04 19:15 48.11725 -56.31940 39207 ft 470 kts 240°
2026-05-04 19:15 48.08696 -56.40627 39211 ft 470 kts 240°
2026-05-04 19:16 48.05650 -56.49337 39226 ft 470 kts 240°
2026-05-04 19:16 48.02624 -56.57955 39247 ft 470 kts 240°
2026-05-04 19:17 47.99573 -56.66615 39268 ft 469 kts 240°
2026-05-04 19:17 47.96529 -56.75232 39289 ft 469 kts 240°
2026-05-04 19:18 47.93478 -56.83834 39317 ft 469 kts 240°
2026-05-04 19:18 47.90439 -56.92380 39330 ft 468 kts 240°
2026-05-04 19:19 47.87380 -57.00955 39350 ft 467 kts 240°
2026-05-04 19:19 47.84329 -57.09476 39370 ft 467 kts 240°
2026-05-04 19:20 47.81251 -57.18046 39388 ft 466 kts 240°
2026-05-04 19:20 47.78198 -57.26519 39399 ft 466 kts 240°
2026-05-04 19:21 47.75124 -57.35022 39400 ft 466 kts 240°
2026-05-04 19:21 47.72054 -57.43487 39409 ft 465 kts 240°
2026-05-04 19:22 47.68986 -57.51917 39411 ft 465 kts 240°
2026-05-04 19:22 47.65908 -57.60347 39418 ft 464 kts 240°
2026-05-04 19:23 47.62832 -57.68752 39426 ft 464 kts 240°
2026-05-04 19:23 47.59746 -57.77157 39435 ft 463 kts 240°
2026-05-04 19:24 47.56652 -57.85556 39438 ft 463 kts 240°
2026-05-04 19:24 47.53558 -57.93922 39449 ft 463 kts 240°
2026-05-04 19:25 47.50456 -58.02283 39455 ft 463 kts 240°
2026-05-04 19:25 47.47357 -58.10614 39462 ft 462 kts 240°
2026-05-04 19:26 47.44264 -58.18906 39468 ft 462 kts 240°
2026-05-04 19:26 47.41146 -58.27237 39477 ft 462 kts 240°
2026-05-04 19:27 47.38026 -58.35547 39481 ft 461 kts 240°
2026-05-04 19:27 47.34926 -58.43780 39487 ft 461 kts 240°
2026-05-04 19:28 47.31815 -58.52013 39495 ft 460 kts 240°
2026-05-04 19:28 47.28675 -58.60297 39496 ft 460 kts 240°
2026-05-04 19:29 47.25567 -58.68475 39503 ft 460 kts 240°
2026-05-04 19:29 47.22422 -58.76723 39507 ft 460 kts 240°
2026-05-04 19:30 47.19302 -58.84882 39514 ft 460 kts 240°
2026-05-04 19:30 47.16145 -58.93109 39519 ft 460 kts 240°
2026-05-04 19:31 47.12999 -59.01286 39523 ft 460 kts 240°
2026-05-04 19:31 47.09848 -59.09449 39526 ft 461 kts 240°
2026-05-04 19:32 47.06682 -59.17628 39532 ft 461 kts 240°
2026-05-04 19:32 47.03493 -59.25840 39536 ft 461 kts 240°
2026-05-04 19:33 47.00308 -59.34019 39540 ft 462 kts 240°
2026-05-04 19:33 46.97118 -59.42184 39545 ft 462 kts 240°
2026-05-04 19:34 46.93910 -59.50370 39545 ft 463 kts 240°
2026-05-04 19:34 46.90694 -59.58553 39548 ft 463 kts 240°
2026-05-04 19:35 46.87482 -59.66702 39547 ft 464 kts 240°
2026-05-04 19:35 46.84253 -59.74871 39553 ft 464 kts 239°
2026-05-04 19:36 46.81029 -59.82999 39553 ft 465 kts 239°
2026-05-04 19:36 46.77777 -59.91176 39555 ft 465 kts 239°
2026-05-04 19:37 46.74526 -59.99324 39556 ft 465 kts 239°
2026-05-04 19:37 46.71260 -60.07485 39554 ft 465 kts 239°
2026-05-04 19:38 46.67997 -60.15617 39550 ft 464 kts 239°
2026-05-04 19:38 46.64738 -60.23713 39544 ft 463 kts 239°
2026-05-04 19:39 46.61482 -60.31778 39544 ft 462 kts 239°
2026-05-04 19:39 46.58223 -60.39825 39547 ft 461 kts 239°
2026-05-04 19:40 46.54979 -60.47812 39551 ft 459 kts 239°
2026-05-04 19:40 46.51741 -60.55763 39567 ft 458 kts 239°
2026-05-04 19:41 46.48478 -60.63754 39573 ft 458 kts 239°
2026-05-04 19:41 46.45238 -60.71662 39580 ft 457 kts 239°
2026-05-04 19:42 46.41984 -60.79584 39591 ft 458 kts 239°
2026-05-04 19:42 46.38709 -60.87535 39599 ft 458 kts 239°
2026-05-04 19:43 46.35436 -60.95456 39602 ft 457 kts 239°
2026-05-04 19:43 46.32733 -61.01981 39607 ft 457 kts 239°
2026-05-04 19:44 46.28914 -61.11172 39615 ft 457 kts 239°
2026-05-04 19:44 46.25632 -61.19048 39623 ft 457 kts 239°
2026-05-04 19:45 46.22887 -61.25618 39628 ft 457 kts 239°
2026-05-04 19:45 46.19604 -61.33454 39631 ft 457 kts 239°
2026-05-04 19:46 46.16294 -61.41336 39641 ft 457 kts 239°
2026-05-04 19:46 46.12999 -61.49157 39645 ft 457 kts 239°
2026-05-04 19:47 46.09679 -61.57014 39651 ft 458 kts 239°
2026-05-04 19:47 46.06370 -61.64825 39655 ft 457 kts 239°
2026-05-04 19:48 46.03072 -61.72586 39658 ft 457 kts 239°
2026-05-04 19:48 45.99740 -61.80408 39662 ft 457 kts 239°
2026-05-04 19:49 45.96409 -61.88206 39667 ft 456 kts 239°
2026-05-04 19:49 45.93091 -61.95950 39668 ft 456 kts 239°
2026-05-04 19:50 45.89755 -62.03715 39666 ft 456 kts 239°
2026-05-04 19:50 45.86423 -62.11449 39668 ft 455 kts 239°
2026-05-04 19:51 45.83088 -62.19170 39671 ft 455 kts 239°
2026-05-04 19:51 45.79749 -62.26876 39666 ft 455 kts 239°
2026-05-04 19:52 45.76412 -62.34558 39670 ft 455 kts 239°
2026-05-04 19:52 45.73062 -62.42249 39669 ft 454 kts 239°
2026-05-04 19:53 45.69715 -62.49914 39672 ft 454 kts 238°
2026-05-04 19:53 45.66349 -62.57598 39677 ft 454 kts 238°
2026-05-04 19:54 45.63003 -62.65216 39677 ft 454 kts 238°
2026-05-04 19:54 45.59637 -62.72860 39678 ft 453 kts 238°
2026-05-04 19:55 45.56285 -62.80454 39687 ft 453 kts 238°
2026-05-04 19:55 45.52921 -62.88050 39684 ft 452 kts 238°
2026-05-04 19:56 45.49566 -62.95609 39690 ft 452 kts 238°
2026-05-04 19:56 45.46206 -63.03158 39694 ft 452 kts 238°
2026-05-04 19:57 45.42827 -63.10728 39696 ft 452 kts 238°
2026-05-04 19:57 45.39448 -63.18278 39706 ft 452 kts 238°
2026-05-04 19:58 45.36073 -63.25802 39713 ft 452 kts 238°
2026-05-04 19:58 45.32679 -63.33346 39714 ft 452 kts 238°
2026-05-04 19:59 45.29300 -63.40836 39717 ft 452 kts 238°
2026-05-04 19:59 45.25903 -63.48346 39721 ft 451 kts 238°
2026-05-04 20:00 45.22519 -63.55807 39722 ft 451 kts 238°
2026-05-04 20:00 45.19104 -63.63320 39722 ft 450 kts 238°
2026-05-04 20:01 45.15726 -63.70732 39721 ft 450 kts 238°
2026-05-04 20:01 45.12333 -63.78155 39724 ft 450 kts 238°
2026-05-04 20:02 45.08911 -63.85622 39725 ft 450 kts 238°
2026-05-04 20:02 45.05513 -63.93019 39723 ft 450 kts 238°
2026-05-04 20:03 45.02107 -64.00412 39729 ft 449 kts 238°
2026-05-04 20:03 44.98684 -64.07825 39733 ft 449 kts 238°
2026-05-04 20:04 44.95268 -64.15203 39726 ft 449 kts 238°
2026-05-04 20:04 44.91842 -64.22581 39726 ft 448 kts 238°
2026-05-04 20:05 44.88432 -64.29909 39730 ft 448 kts 238°
2026-05-04 20:05 44.85023 -64.37214 39728 ft 448 kts 238°
2026-05-04 20:06 44.81593 -64.44548 39729 ft 448 kts 238°
2026-05-04 20:06 44.78149 -64.51890 39733 ft 447 kts 238°
2026-05-04 20:07 44.74711 -64.59202 39740 ft 447 kts 238°
2026-05-04 20:07 44.71284 -64.66472 39740 ft 447 kts 238°
2026-05-04 20:08 44.67843 -64.73755 39745 ft 447 kts 238°
2026-05-04 20:08 44.64415 -64.80989 39750 ft 447 kts 238°
2026-05-04 20:09 44.60960 -64.88264 39756 ft 446 kts 238°
2026-05-04 20:09 44.57497 -64.95535 39766 ft 446 kts 238°
2026-05-04 20:10 44.54052 -65.02751 39768 ft 446 kts 238°
2026-05-04 20:10 44.50606 -65.09953 39771 ft 446 kts 238°
2026-05-04 20:11 44.47149 -65.17159 39783 ft 445 kts 237°
2026-05-04 20:11 44.43698 -65.24334 39789 ft 445 kts 237°
2026-05-04 20:12 44.40222 -65.31543 39792 ft 445 kts 237°
2026-05-04 20:12 44.36769 -65.38686 39796 ft 445 kts 237°
2026-05-04 20:13 44.33299 -65.45848 39799 ft 444 kts 237°
2026-05-04 20:13 44.29829 -65.52991 39803 ft 444 kts 237°
2026-05-04 20:14 44.26366 -65.60103 39805 ft 444 kts 237°
2026-05-04 20:14 44.22883 -65.67239 39813 ft 444 kts 237°
2026-05-04 20:15 44.19386 -65.74386 39814 ft 444 kts 237°
2026-05-04 20:15 44.15897 -65.81499 39822 ft 444 kts 237°
2026-05-04 20:16 44.12406 -65.88597 39828 ft 445 kts 237°
2026-05-04 20:16 44.08918 -65.95673 39834 ft 444 kts 237°
2026-05-04 20:17 44.05406 -66.02780 39836 ft 444 kts 237°
2026-05-04 20:17 44.01912 -66.09832 39841 ft 444 kts 237°
2026-05-04 20:18 43.98408 -66.16888 39845 ft 444 kts 237°
2026-05-04 20:18 43.94894 -66.23949 39843 ft 443 kts 237°
2026-05-04 20:19 43.91378 -66.30995 39846 ft 443 kts 237°
2026-05-04 20:19 43.87872 -66.38004 39842 ft 443 kts 237°
2026-05-04 20:20 43.84372 -66.44985 39840 ft 443 kts 237°
2026-05-04 20:20 43.80833 -66.52028 39835 ft 442 kts 237°
2026-05-04 20:21 43.77323 -66.58995 39831 ft 442 kts 237°
2026-05-04 20:21 43.72045 -66.69441 39829 ft 441 kts 237°
2026-05-04 20:22 43.68539 -66.76359 39832 ft 441 kts 237°
2026-05-04 20:22 43.65016 -66.83296 39839 ft 441 kts 237°
2026-05-04 20:23 43.61492 -66.90216 39853 ft 441 kts 237°
2026-05-04 20:23 43.57970 -66.97117 39836 ft 441 kts 237°
2026-05-04 20:24 43.56408 -67.00727 39860 ft 438 kts 248°
2026-05-04 20:24 43.55247 -67.04627 39847 ft 438 kts 249°
2026-05-04 20:24 43.53398 -67.11156 39832 ft 438 kts 249°
2026-05-04 20:25 43.51190 -67.19007 39841 ft 438 kts 249°
2026-05-04 20:25 43.48989 -67.26834 39843 ft 438 kts 249°
2026-05-04 20:26 43.46795 -67.34615 39847 ft 438 kts 249°
2026-05-04 20:26 43.44574 -67.42469 39843 ft 439 kts 249°
2026-05-04 20:27 43.42359 -67.50278 39833 ft 439 kts 249°
2026-05-04 20:27 43.40139 -67.58083 39845 ft 439 kts 249°
2026-05-04 20:28 43.37912 -67.65884 39846 ft 439 kts 249°
2026-05-04 20:28 43.35676 -67.73696 39845 ft 439 kts 249°
2026-05-04 20:29 43.33435 -67.81501 39842 ft 439 kts 249°
2026-05-04 20:29 43.31172 -67.89354 39847 ft 439 kts 249°
2026-05-04 20:30 43.28913 -67.97148 39840 ft 440 kts 249°
2026-05-04 20:30 43.26662 -68.04916 39839 ft 440 kts 249°
2026-05-04 20:31 43.24394 -68.12725 39839 ft 440 kts 249°
2026-05-04 20:31 43.22123 -68.20521 39837 ft 440 kts 249°
2026-05-04 20:32 43.19840 -68.28328 39843 ft 440 kts 249°
2026-05-04 20:32 43.17567 -68.36076 39815 ft 440 kts 249°
2026-05-04 20:33 43.16409 -68.40013 39603 ft 441 kts 249°
2026-05-04 20:33 43.15267 -68.43890 39387 ft 442 kts 249°
2026-05-04 20:33 43.14117 -68.47788 39169 ft 438 kts 249°
2026-05-04 20:33 43.12986 -68.51613 38780 ft 436 kts 249°
2026-05-04 20:34 43.11845 -68.55469 38108 ft 437 kts 249°
2026-05-04 20:34 43.10703 -68.59323 37424 ft 438 kts 249°
2026-05-04 20:34 43.09542 -68.63236 36747 ft 438 kts 249°
2026-05-04 20:34 43.08400 -68.67075 36065 ft 438 kts 249°
2026-05-04 20:35 43.07257 -68.70914 35374 ft 439 kts 250°
2026-05-04 20:35 43.06096 -68.74809 34857 ft 436 kts 250°
2026-05-04 20:35 43.04966 -68.78591 34340 ft 433 kts 250°
2026-05-04 20:35 43.03821 -68.82416 33804 ft 430 kts 250°
2026-05-04 20:36 43.02690 -68.86192 33214 ft 427 kts 250°
2026-05-04 20:36 43.01563 -68.89942 32687 ft 423 kts 251°
2026-05-04 20:36 43.00463 -68.93603 32174 ft 418 kts 251°
2026-05-04 20:36 42.99359 -68.97271 31680 ft 414 kts 251°
2026-05-04 20:37 42.98264 -69.00904 31172 ft 411 kts 252°
2026-05-04 20:37 42.97176 -69.04510 30663 ft 407 kts 252°
2026-05-04 20:37 42.96097 -69.08080 30179 ft 404 kts 253°
2026-05-04 20:37 42.95032 -69.11604 29631 ft 401 kts 253°
2026-05-04 20:38 42.93969 -69.15119 29125 ft 396 kts 253°
2026-05-04 20:38 42.92933 -69.18538 28637 ft 392 kts 253°
2026-05-04 20:38 42.91889 -69.21979 28142 ft 388 kts 253°
2026-05-04 20:38 42.90874 -69.25320 27660 ft 384 kts 253°
2026-05-04 20:39 42.89857 -69.28662 27184 ft 380 kts 253°
2026-05-04 20:39 42.88846 -69.31979 26707 ft 377 kts 253°
2026-05-04 20:39 42.87841 -69.35275 26226 ft 374 kts 253°
2026-05-04 20:39 42.86839 -69.38555 25751 ft 371 kts 252°
2026-05-04 20:40 42.85848 -69.41796 25264 ft 369 kts 252°
2026-05-04 20:40 42.84854 -69.45024 24761 ft 368 kts 252°
2026-05-04 20:40 42.83881 -69.48200 24304 ft 366 kts 252°
2026-05-04 20:40 42.82898 -69.51408 23808 ft 365 kts 252°
2026-05-04 20:41 42.81916 -69.54607 23299 ft 364 kts 252°
2026-05-04 20:41 42.80940 -69.57779 22767 ft 362 kts 252°
2026-05-04 20:41 42.79973 -69.60919 22279 ft 359 kts 252°
2026-05-04 20:41 42.79007 -69.64047 21779 ft 357 kts 251°
2026-05-04 20:42 42.78050 -69.67146 21304 ft 354 kts 251°
2026-05-04 20:42 42.77103 -69.70209 20825 ft 352 kts 251°
2026-05-04 20:42 42.76145 -69.73302 20349 ft 350 kts 251°
2026-05-04 20:42 42.75205 -69.76335 19867 ft 348 kts 251°
2026-05-04 20:43 42.74264 -69.79364 19385 ft 345 kts 251°
2026-05-04 20:43 42.73342 -69.82333 18910 ft 343 kts 251°
2026-05-04 20:43 42.72406 -69.85341 18438 ft 341 kts 250°
2026-05-04 20:43 42.71493 -69.88274 17937 ft 339 kts 250°
2026-05-04 20:44 42.70573 -69.91220 17452 ft 335 kts 250°
2026-05-04 20:44 42.69664 -69.94131 16984 ft 332 kts 250°
2026-05-04 20:44 42.68769 -69.96994 16515 ft 329 kts 250°
2026-05-04 20:44 42.67878 -69.99843 16058 ft 327 kts 250°
2026-05-04 20:45 42.66981 -70.02706 15589 ft 325 kts 250°
2026-05-04 20:45 42.66095 -70.05535 15136 ft 323 kts 250°
2026-05-04 20:45 42.65228 -70.08299 14680 ft 322 kts 250°
2026-05-04 20:45 42.64333 -70.11088 14320 ft 318 kts 248°
2026-05-04 20:46 42.63403 -70.13764 14176 ft 306 kts 248°
2026-05-04 20:46 42.62513 -70.16302 14037 ft 293 kts 248°
2026-05-04 20:46 42.61654 -70.18770 13916 ft 282 kts 248°
2026-05-04 20:46 42.60830 -70.21151 13658 ft 277 kts 248°
2026-05-04 20:47 42.60193 -70.23589 13295 ft 273 kts 261°
2026-05-04 20:47 42.59976 -70.26124 12945 ft 270 kts 268°
2026-05-04 20:47 42.59868 -70.28693 12617 ft 269 kts 268°
2026-05-04 20:47 42.59766 -70.31190 12279 ft 267 kts 268°
2026-05-04 20:48 42.59656 -70.33726 11939 ft 266 kts 268°
2026-05-04 20:48 42.59545 -70.36222 11615 ft 264 kts 268°
2026-05-04 20:48 42.59432 -70.38707 11268 ft 263 kts 268°
2026-05-04 20:48 42.59318 -70.41146 10935 ft 261 kts 268°
2026-05-04 20:49 42.59203 -70.43609 10532 ft 260 kts 268°
2026-05-04 20:49 42.59088 -70.46064 10146 ft 259 kts 268°
2026-05-04 20:49 42.58976 -70.48454 9754 ft 257 kts 268°
2026-05-04 20:49 42.58861 -70.50894 9341 ft 256 kts 268°
2026-05-04 20:50 42.58749 -70.53284 8915 ft 254 kts 268°
2026-05-04 20:50 42.58626 -70.55665 8504 ft 253 kts 266°
2026-05-04 20:50 42.58283 -70.58018 8090 ft 253 kts 257°
2026-05-04 20:50 42.57792 -70.60298 7693 ft 252 kts 255°
2026-05-04 20:51 42.57287 -70.62575 7301 ft 249 kts 255°
2026-05-04 20:51 42.56982 -70.64837 6612 ft 242 kts 266°
2026-05-04 20:51 42.56947 -70.67110 5802 ft 243 kts 270°
2026-05-04 20:51 42.57040 -70.69437 5290 ft 246 kts 273°
2026-05-04 20:52 42.57198 -70.71705 4940 ft 244 kts 274°
2026-05-04 20:52 42.57384 -70.74004 4571 ft 243 kts 274°
2026-05-04 20:52 42.57572 -70.76280 4191 ft 242 kts 274°
2026-05-04 20:52 42.57752 -70.78525 3997 ft 240 kts 274°
2026-05-04 20:53 42.57925 -70.80738 3979 ft 226 kts 274°
2026-05-04 20:53 42.58077 -70.82772 3966 ft 211 kts 273°
2026-05-04 20:53 42.58212 -70.84706 3979 ft 197 kts 273°
2026-05-04 20:53 42.58240 -70.86472 3977 ft 182 kts 264°
2026-05-04 20:54 42.57992 -70.88096 3781 ft 175 kts 251°
2026-05-04 20:54 42.57416 -70.89568 3402 ft 180 kts 235°
2026-05-04 20:54 42.57176 -70.89937 3292 ft 182 kts 228°
2026-05-04 20:55 42.56123 -70.90894 2994 ft 184 kts 210°
2026-05-04 20:55 42.54967 -70.91522 2858 ft 175 kts 205°
2026-05-04 20:55 42.53858 -70.92060 2754 ft 164 kts 205°
2026-05-04 20:55 42.52808 -70.92567 2668 ft 153 kts 206°
2026-05-04 20:56 42.51835 -70.93038 2599 ft 143 kts 206°
2026-05-04 20:56 42.50917 -70.93490 2536 ft 140 kts 207°
2026-05-04 20:56 42.49995 -70.93948 2478 ft 142 kts 206°
2026-05-04 20:56 42.49078 -70.94398 2426 ft 142 kts 206°
2026-05-04 20:57 42.48150 -70.94849 2241 ft 137 kts 207°
2026-05-04 20:57 42.47279 -70.95270 2056 ft 131 kts 206°
2026-05-04 20:57 42.46441 -70.95675 1892 ft 126 kts 207°
2026-05-04 20:57 42.45608 -70.96084 1731 ft 127 kts 206°
2026-05-04 20:58 42.44780 -70.96485 1567 ft 126 kts 208°
2026-05-04 20:58 42.43961 -70.96888 1400 ft 126 kts 207°
2026-05-04 20:58 42.43138 -70.97287 1219 ft 125 kts 205°
2026-05-04 20:58 42.42596 -70.97547 1114 ft 125 kts 206°
2026-05-04 20:59 42.41777 -70.97947 943 ft 125 kts 205°
2026-05-04 20:59 42.40956 -70.98349 789 ft 123 kts 201°
2026-05-04 20:59 42.40155 -70.98733 633 ft 122 kts 204°
2026-05-04 20:59 42.39357 -70.99123 496 ft 123 kts 202°
2026-05-04 21:00 42.38549 -70.99507 304 ft 122 kts 200°
2026-05-04 21:00 42.37756 -70.99895 138 ft 122 kts 204°
2026-05-04 21:00 42.36972 -71.00275 34 ft 116 kts 204°
2026-05-04 21:00 42.36357 -71.00581 32 ft 58 kts 200°
2026-05-04 21:01 42.36164 -71.00674 31 ft 24 kts 200°
2026-05-04 21:01 42.36020 -71.00764 33 ft 22 kts 219°
2026-05-04 21:01 42.35912 -71.00922 32 ft 24 kts 229°
2026-05-04 21:01 42.35836 -71.01080 32 ft 12 kts 257°
2026-05-04 21:02 42.35838 -71.01203 32 ft 14 kts 276°
2026-05-04 21:02 42.35853 -71.01343 32 ft 16 kts 278°
2026-05-04 21:02 42.35875 -71.01495 32 ft 16 kts 297°
2026-05-04 21:02 42.35887 -71.01511 32 ft 1 kts 317°
2026-05-04 21:03 42.35973 -71.01510 32 ft 19 kts 19°
2026-05-04 21:03 42.36108 -71.01445 32 ft 22 kts 19°
2026-05-04 21:03 42.36264 -71.01371 32 ft 23 kts 20°
2026-05-04 21:03 42.36391 -71.01308 32 ft 19 kts 20°
2026-05-04 21:04 42.36526 -71.01244 32 ft 22 kts 19°
2026-05-04 21:04 42.36676 -71.01170 32 ft 24 kts 20°
2026-05-04 21:04 42.36834 -71.01202 32 ft 25 kts 315°
2026-05-04 21:04 42.36959 -71.01374 30 ft 26 kts 315°
2026-05-04 21:05 42.37082 -71.01539 32 ft 24 kts 315°
2026-05-04 21:05 42.37139 -71.01678 32 ft 15 kts 264°
2026-05-04 21:05 42.37158 -71.01816 32 ft 11 kts 298°
2026-05-04 21:05 42.37142 -71.01904 32 ft 10 kts 219°
2026-05-04 21:06 42.37117 -71.01924 32 ft 0 kts 210°
2026-05-04 21:06 42.37110 -71.01930 32 ft 1 kts 210°
2026-05-04 21:06 42.37108 -71.01931 32 ft 0 kts 210°